• In Hungary
  • List of Countries
  • For 7 days
  • Water Temperature
  • Satellite Maps
  • Weather Map
  • News
  • Weather Widgets
  • user-avatar
    Login

    Hourly Weather Cabra

    Today, 19 January, Friday

    Time Temperature Precipitation Wind Pressure Humidity
    00:00 +9°C° 0 mm 0 mps 720 mmHg 65%
    01:00 +9°C° 0 mm 0 mps 720 mmHg 65%
    02:00 +9°C° 0 mm 0 mps 720 mmHg 66%
    03:00 +9°C° 0 mm 0 mps 720 mmHg 66%
    04:00 +8°C° 0 mm 0 mps 720 mmHg 67%
    05:00 +8°C° 0 mm 0 mps 720 mmHg 68%
    06:00 +8°C° 0 mm 0 mps 720 mmHg 70%
    07:00 +8°C° 0 mm 0 mps 720 mmHg 69%
    08:00 +9°C° 0 mm 0 mps 721 mmHg 69%
    09:00 +9°C° 0 mm 0 mps 721 mmHg 69%
    10:00 +12°C° 0 mm 1 mps 722 mmHg 64%
    11:00 +13°C° 0 mm 1 mps 722 mmHg 59%
    12:00 +14°C° 0 mm 1 mps 723 mmHg 54%
    13:00 +15°C° 0 mm 1 mps 722 mmHg 52%
    14:00 +15°C° 0 mm 1 mps 722 mmHg 51%
    15:00 +16°C° 0 mm 2 mps 722 mmHg 50%
    16:00 +14°C° 0 mm 2 mps 722 mmHg 57%
    17:00 +13°C° 0 mm 1 mps 722 mmHg 63%
    18:00 +11°C° 0 mm 1 mps 723 mmHg 69%
    19:00 +10°C° 0 mm 1 mps 723 mmHg 72%
    20:00 +10°C° 0 mm 1 mps 724 mmHg 74%
    21:00 +9°C° 0 mm 1 mps 725 mmHg 76%
    22:00 +9°C° 0 mm 1 mps 725 mmHg 77%
    23:00 +9°C° 0 mm 1 mps 725 mmHg 78%

    Tomorrow, 20 January, Saturday

    Time Temperature Precipitation Wind Pressure Humidity
    00:00 +8°C° 0 mm 1 mps 725 mmHg 79%
    01:00 +8°C° 0 mm 1 mps 725 mmHg 80%
    02:00 +8°C° 0 mm 1 mps 725 mmHg 80%
    03:00 +8°C° 0 mm 1 mps 725 mmHg 80%
    04:00 +8°C° 0 mm 1 mps 725 mmHg 80%
    05:00 +7°C° 0 mm 1 mps 725 mmHg 80%
    06:00 +7°C° 0 mm 1 mps 726 mmHg 80%
    07:00 +8°C° 0 mm 1 mps 726 mmHg 76%
    08:00 +9°C° 0 mm 1 mps 727 mmHg 73%
    09:00 +10°C° 0 mm 1 mps 727 mmHg 69%
    10:00 +12°C° 0 mm 1 mps 727 mmHg 62%
    11:00 +13°C° 0 mm 1 mps 727 mmHg 54%
    12:00 +15°C° 0 mm 1 mps 727 mmHg 47%
    13:00 +16°C° 0 mm 1 mps 727 mmHg 46%
    14:00 +16°C° 0 mm 2 mps 727 mmHg 45%
    15:00 +16°C° 0 mm 2 mps 726 mmHg 44%
    16:00 +15°C° 0 mm 2 mps 726 mmHg 51%
    17:00 +13°C° 0 mm 2 mps 727 mmHg 57%
    18:00 +11°C° 0 mm 1 mps 727 mmHg 64%
    19:00 +11°C° 0 mm 1 mps 727 mmHg 66%
    20:00 +10°C° 0 mm 1 mps 727 mmHg 68%
    21:00 +10°C° 0 mm 1 mps 728 mmHg 70%
    22:00 +9°C° 0 mm 1 mps 728 mmHg 71%
    23:00 +9°C° 0 mm 1 mps 728 mmHg 72%

    Day after tomorrow, 21 January, Sunday

    Time Temperature Precipitation Wind Pressure Humidity
    00:00 +9°C° 0 mm 1 mps 728 mmHg 73%
    01:00 +9°C° 0 mm 1 mps 728 mmHg 73%
    02:00 +9°C° 0 mm 1 mps 727 mmHg 74%
    03:00 +8°C° 0 mm 1 mps 727 mmHg 74%
    04:00 +8°C° 0 mm 1 mps 727 mmHg 73%
    05:00 +8°C° 0 mm 1 mps 727 mmHg 72%
    06:00 +8°C° 0 mm 1 mps 727 mmHg 72%
    07:00 +9°C° 0 mm 1 mps 728 mmHg 69%
    08:00 +10°C° 0 mm 1 mps 728 mmHg 66%
    09:00 +11°C° 0 mm 1 mps 728 mmHg 64%
    10:00 +13°C° 0 mm 1 mps 728 mmHg 58%
    11:00 +15°C° 0 mm 1 mps 729 mmHg 52%
    12:00 +17°C° 0 mm 2 mps 729 mmHg 46%
    13:00 +18°C° 0 mm 1 mps 728 mmHg 46%
    14:00 +19°C° 0 mm 1 mps 728 mmHg 45%
    15:00 +20°C° 0 mm 1 mps 727 mmHg 45%
    16:00 +18°C° 0 mm 1 mps 727 mmHg 51%
    17:00 +15°C° 0 mm 1 mps 727 mmHg 57%
    18:00 +13°C° 0 mm 1 mps 727 mmHg 64%
    19:00 +13°C° 0 mm 1 mps 727 mmHg 66%
    20:00 +12°C° 0 mm 1 mps 728 mmHg 68%
    21:00 +12°C° 0 mm 1 mps 728 mmHg 70%
    22:00 +11°C° 0 mm 1 mps 728 mmHg 71%
    23:00 +11°C° 0 mm 1 mps 728 mmHg 73%

    22 January, Monday

    Time Temperature Precipitation Wind Pressure Humidity
    00:00 +10°C° 0 mm 1 mps 727 mmHg 74%
    01:00 +10°C° 0 mm 1 mps 727 mmHg 75%
    02:00 +10°C° 0 mm 1 mps 727 mmHg 76%
    03:00 +10°C° 0 mm 1 mps 727 mmHg 77%
    04:00 +9°C° 0 mm 1 mps 727 mmHg 78%
    05:00 +9°C° 0 mm 1 mps 727 mmHg 78%
    06:00 +9°C° 0 mm 1 mps 727 mmHg 78%
    07:00 +10°C° 0 mm 1 mps 727 mmHg 75%
    08:00 +11°C° 0 mm 1 mps 727 mmHg 72%
    09:00 +12°C° 0 mm 1 mps 728 mmHg 69%
    10:00 +14°C° 0 mm 1 mps 728 mmHg 61%
    11:00 +16°C° 0 mm 1 mps 728 mmHg 54%
    12:00 +18°C° 0 mm 1 mps 728 mmHg 47%
    13:00 +19°C° 0 mm 1 mps 728 mmHg 46%
    14:00 +20°C° 0 mm 1 mps 727 mmHg 44%
    15:00 +20°C° 0 mm 1 mps 727 mmHg 43%
    16:00 +18°C° 0 mm 1 mps 727 mmHg 50%
    17:00 +15°C° 0 mm 1 mps 727 mmHg 56%
    18:00 +13°C° 0 mm 1 mps 727 mmHg 63%
    19:00 +13°C° 0 mm 1 mps 727 mmHg 65%
    20:00 +12°C° 0 mm 1 mps 727 mmHg 66%
    21:00 +12°C° 0 mm 1 mps 727 mmHg 68%
    22:00 +11°C° 0 mm 1 mps 727 mmHg 69%
    23:00 +11°C° 0 mm 1 mps 727 mmHg 69%

    23 January, Tuesday

    Time Temperature Precipitation Wind Pressure Humidity
    00:00 +11°C° 0 mm 1 mps 727 mmHg 70%
    01:00 +10°C° 0 mm 1 mps 727 mmHg 69%
    02:00 +10°C° 0 mm 1 mps 727 mmHg 68%
    03:00 +10°C° 0 mm 1 mps 727 mmHg 68%
    04:00 +10°C° 0 mm 1 mps 727 mmHg 66%
    05:00 +10°C° 0 mm 1 mps 727 mmHg 65%
    06:00 +9°C° 0 mm 1 mps 727 mmHg 64%
    07:00 +10°C° 0 mm 1 mps 727 mmHg 62%
    08:00 +11°C° 0 mm 1 mps 728 mmHg 59%
    09:00 +12°C° 0 mm 1 mps 728 mmHg 57%
    10:00 +14°C° 0 mm 2 mps 728 mmHg 50%
    11:00 +16°C° 0 mm 2 mps 728 mmHg 44%
    12:00 +18°C° 0 mm 2 mps 728 mmHg 37%
    13:00 +19°C° 0 mm 2 mps 728 mmHg 37%
    14:00 +19°C° 0 mm 2 mps 727 mmHg 36%
    15:00 +21°C° 0 mm 1 mps 727 mmHg 36%
    16:00 +19°C° 0 mm 1 mps 727 mmHg 41%
    17:00 +16°C° 0 mm 1 mps 727 mmHg 47%
    18:00 +14°C° 0 mm 1 mps 726 mmHg 53%
    19:00 +13°C° 0 mm 1 mps 727 mmHg 55%
    20:00 +13°C° 0 mm 1 mps 727 mmHg 57%
    21:00 +12°C° 0 mm 2 mps 727 mmHg 59%
    22:00 +12°C° 0 mm 2 mps 727 mmHg 60%
    23:00 +10°C° 0 mm 2 mps 727 mmHg 61%

    24 January, Wednesday

    Time Temperature Precipitation Wind Pressure Humidity
    00:00 +10°C° 0 mm 2 mps 727 mmHg 63%
    01:00 +9°C° 0 mm 2 mps 726 mmHg 63%
    02:00 +9°C° 0 mm 2 mps 726 mmHg 63%
    03:00 +9°C° 0 mm 2 mps 726 mmHg 64%
    04:00 +9°C° 0 mm 2 mps 725 mmHg 63%
    05:00 +8°C° 0 mm 2 mps 725 mmHg 63%
    06:00 +8°C° 0 mm 2 mps 725 mmHg 63%
    07:00 +9°C° 0 mm 2 mps 725 mmHg 61%
    08:00 +10°C° 0 mm 2 mps 726 mmHg 59%
    09:00 +12°C° 0 mm 1 mps 726 mmHg 58%
    10:00 +14°C° 0 mm 2 mps 726 mmHg 51%
    11:00 +16°C° 0 mm 2 mps 726 mmHg 45%
    12:00 +18°C° 0 mm 2 mps 726 mmHg 39%
    13:00 +18°C° 0 mm 2 mps 726 mmHg 39%
    14:00 +20°C° 0 mm 1 mps 725 mmHg 38%
    15:00 +20°C° 0 mm 1 mps 725 mmHg 38%
    16:00 +18°C° 0 mm 1 mps 725 mmHg 44%
    17:00 +15°C° 0 mm 1 mps 725 mmHg 50%
    18:00 +13°C° 0 mm 1 mps 724 mmHg 56%
    19:00 +13°C° 0 mm 1 mps 725 mmHg 57%
    20:00 +12°C° 0 mm 1 mps 725 mmHg 58%
    21:00 +12°C° 0 mm 1 mps 725 mmHg 59%
    22:00 +12°C° 0 mm 1 mps 725 mmHg 60%
    23:00 +12°C° 0 mm 1 mps 725 mmHg 60%
    Show more